Find Starlink 5571

NORAD ID: 55380 Int'l Des: 2023-013 Owner: SPXS Country: US Constellation: starlink operational
LEOCIRCULAR

当前视图

正在加载3D地球...

About Starlink 5571

Starlink 5571 (NORAD 55380) is a starlink constellation satellite (v1.5) launched Jan 26, 2023 by SPXS of US. It operates in LEO, CIRCULAR orbit with a mass of 305.00 kg.

关于 Starlink 5571

正在加载描述...

即将过境

Passes for default location (London). Set your location on the main map for personalized predictions.

高度历史

Loading altitude history...

两行轨道根数

1 55380U 23013BB 26195.58597909 .00025604 00000-0 10612-2 0 9994
2 55380 42.9985 310.5095 0000974 266.2897 93.7842 15.23423534191032
Epoch: Jul 14, 2026 • Age: 8 hours

当前状态

高度 498.9 km
远地点 / 近地点 N/A
速度 7.62 km/s
星下点 41.35°N, 111.72°E
发射日期 Jan 26, 2023
运行时间 3.4 years
类型 internet

技术详情

分类 Payload
质量 305.00 kg
干质量 290.00 kg
总质量 305.00 kg
长度 0.20 m
直径 2.80 m
跨度 9.00 m
形状 Box + pan
制造商 SPXS
平台类型 Starlink
阶段状态 In Orbit
所有者/国家 SPXS/US

Most Searched